Вернуться в каталог

STARLINK-37319

АктивенСвязьVLEO
NORAD 68706·PAYLOAD·🇺🇸 United States

Запущен Apr 14, 2026 с Cape Canaveral Space Force Station

Loading…

Ближайшие Пролёты (ближайшие 24 часа)

TLE

СвежийSource: CelesTrak SupGP

Эпоха: Sep 14, 2026, 21:14 UTC

1 68706C 26081H   26257.88520833  .00046589  00000+0  13764-2 0  2574
2 68706  53.1575 232.1207 0001320  91.5331 301.8145 15.34368265    16

Отслеживайте STARLINK-37319 в реальном времени с AllMySat

Download on the App Store